#timestamp,LO_Frequency,Hit,StdDev 
1674306015.2,286046998.1,N
1674306035.0,286047000.4,N
1674306035.9,286047000.4,N
1674306055.8,286046999.9,N
1674306075.6,286047002.0,N
1674306095.4,286047003.6,N
1674306115.3,286047001.4,N
1674306135.1,286047002.8,N
1674306155.9,286047000.7,N
1674306175.7,286047000.2,N
1674306195.5,286047002.3,N
1674306215.4,286047000.3,N
1674306235.2,286047002.1,N
1674306255.0,286047003.1,N
1674306255.9,286047003.1,N
1674306275.8,286046999.9,N
1674306295.6,286046999.1,N
1674306315.4,286046998.4,N
1674306335.3,286047000.6,N
1674306355.1,286047001.8,N
1674306375.9,286047004.4,N
1674306395.7,286047000.8,N
1674306415.5,286047000.2,N
1674306435.4,286046996.6,N
1674306455.2,286046999.4,N
1674306475.0,286046998.6,N
1674306475.9,286046998.6,N
1674306495.8,286046999.9,N
1674306515.6,286047004.4,N
1674306535.5,286047002.2,N
1674306555.3,286046999.8,N
1674306575.1,286046998.1,N
1674306595.9,286047000.9,N
1674306615.7,286047000.8,N
1674306635.5,286047000.3,N
1674306655.4,286046998.5,N
1674306675.2,286047001.2,N
1674306695.1,286047001.0,N
1674306696.0,286047001.0,N
1674306715.8,286047002.4,N
1674306735.6,286047002.1,N
1674306755.5,286046998.7,N
1674306775.3,286047001.1,N
1674306795.2,286046998.6,N
1674306815.9,286046999.2,N
1674306835.7,286046998.4,N
1674306855.6,286046998.1,N
1674306875.4,286047001.8,N
1674306895.2,286047005.7,Y
1674306915.1,286046999.7,P
1674306916.0,286046999.7,N
1674306935.8,286047000.9,N
1674306955.7,286047001.8,Y
1674306975.5,286047004.2,P
1674306995.3,286047004.7,N
1674307015.2,286047004.7,N
1674307035.0,286047005.2,N
1674307035.9,286047005.2,N
1674307055.8,286047005.6,Y
1674307075.6,286047001.1,P
1674307095.4,286046997.7,N
1674307115.3,286046995.2,N
1674307135.1,286046997.7,N
1674307155.8,286046999.3,N
1674307175.7,286047000.7,N
1674307195.5,286046996.6,N
1674307215.4,286046995.0,N
1674307235.2,286046998.4,N
1674307255.0,286046999.2,N
1674307256.0,286046999.2,N
1674307275.8,286046995.6,N
1674307295.6,286046994.3,N
1674307315.5,286046993.0,N
1674307335.3,286046993.1,N
1674307355.1,286046993.4,N
1674307375.9,286046993.3,N
1674307395.7,286046995.6,N
1674307415.6,286046997.9,N
1674307435.4,286046999.2,N
1674307455.2,286046999.9,N
1674307475.1,286047000.3,N
1674307476.0,286047000.3,N
1674307495.8,286046998.3,N
1674307515.7,286046999.8,N
1674307535.5,286047000.1,N
1674307555.3,286046998.8,N
1674307575.2,286046997.6,N
1674307595.0,286046997.9,N
1674307595.9,286046997.9,N
1674307615.7,286046998.3,N
1674307635.6,286046999.4,N
1674307655.4,286046998.6,N
1674307675.3,286047000.5,N
1674307695.1,286047002.7,N
1674307715.8,286047000.9,N
1674307735.7,286047000.8,N
1674307755.5,286046997.1,N
1674307775.4,286046997.4,N
1674307795.2,286046999.0,N
1674307815.0,286046998.9,N
1674307815.9,286046998.9,N
1674307835.8,286046997.6,N
1674307855.6,286046999.2,N
1674307875.4,286046998.6,N
1674307895.3,286046997.7,N
1674307915.1,286046996.7,N
1674307935.9,286046997.4,N
1674307955.7,286046995.1,Y
1674307975.5,286046993.8,P
1674307995.4,286046994.6,N
1674308015.2,286046995.8,N
1674308035.1,286046997.5,N
1674308036.0,286046997.5,N
1674308055.8,286046996.7,N
1674308075.6,286046996.5,N
1674308095.5,286046999.9,N
1674308115.3,286047001.6,N
1674308135.1,286047001.2,N
1674308155.9,286047001.1,N
1674308175.7,286046998.3,N
1674308195.6,286047000.0,N
1674308215.4,286046997.7,N
1674308235.2,286046995.2,N
1674308255.1,286046997.7,N
1674308256.0,286046997.7,N
1674308275.8,286047000.5,N
1674308295.6,286047000.3,N
1674308315.5,286046997.0,N
1674308335.3,286046999.5,N
1674308355.2,286046998.8,N
1674308375.9,286047000.9,N
1674308395.7,286047002.8,N
1674308415.6,286047001.1,N
1674308435.4,286046999.9,N
1674308455.2,286047000.0,N
1674308475.1,286047002.2,N
1674308476.0,286047002.2,N
1674308495.8,286047000.9,N
1674308515.7,286047002.8,N
1674308535.5,286047000.4,N
1674308555.3,286047000.8,N
1674308575.2,286046996.7,N
1674308595.0,286046996.9,N
1674308595.9,286046996.9,N
1674308615.7,286046999.4,N
1674308635.6,286047000.9,N
1674308655.4,286047000.7,N
1674308675.3,286046999.2,N
1674308695.1,286046998.8,N
1674308696.0,286046998.8,N
1674308715.8,286047000.5,N
1674308735.7,286047001.3,N
1674308755.5,286047002.3,N
1674308775.3,286046998.7,N
1674308795.2,286047001.0,N
1674308815.0,286047002.3,N
1674308815.9,286047002.3,N
1674308835.8,286047002.6,N
1674308855.6,286047002.6,N
1674308875.4,286047002.1,N
1674308895.3,286047000.6,N
1674308915.1,286047000.9,N
1674308935.8,286047003.9,N
1674308955.7,286047002.5,N
1674308975.5,286046998.2,N
1674308995.4,286046999.2,N
1674309015.2,286046998.8,N
1674309035.0,286047002.4,N
1674309035.9,286047002.4,N
1674309055.8,286047004.2,N
1674309075.6,286047003.7,N
1674309095.4,286047004.1,N
1674309115.3,286046999.9,N
1674309135.1,286046999.5,N
1674309155.9,286047000.8,N
1674309175.7,286046999.4,N
1674309195.5,286046999.4,N
1674309215.4,286046999.5,N
1674309235.2,286046997.7,N
1674309255.0,286046998.2,N
1674309255.9,286046998.2,N
1674309275.8,286047000.4,N
1674309295.6,286046999.7,N
1674309315.5,286047002.1,N
1674309335.3,286047002.1,N
1674309355.1,286047001.5,N
1674309375.9,286046999.7,N
1674309395.7,286047000.7,N
1674309415.5,286046995.8,N
1674309435.4,286046993.3,Y
1674309455.2,286046996.4,P
1674309475.1,286046997.7,N
1674309476.0,286046997.7,N
1674309495.8,286046997.9,N
1674309515.6,286047001.2,N
1674309535.5,286046998.1,N
1674309555.3,286046997.1,N
1674309575.2,286046998.0,N
1674309595.9,286046997.1,N
